Regional Weather Roundup
Issued by NWS

Home | Current Version | Previous Version | Text Only | Print | Product List | Glossary Off
Versions: 1 2 3 4 5 6 7 8 9 10 11 12 13 14 15 16 17 18 19 20 21 22 23 24 25 26 27

000
ASUS45 KBOU 300307
RWRCO

WEATHER ROUNDUP FOR COLORADO
NATIONAL WEATHER SERVICE DENVER/BOULDER CO
900 PM MDT FRI APR 29 2016

NOTE: "FAIR" INDICATES FEW OR NO CLOUDS BELOW 12000 FEET WITH NO
SIGNIFICANT WEATHER AND/OR OBSTRUCTIONS TO VISIBILITY.

COZ001>005-013-030-031-300400-
...NORTHWEST COLORADO...

CITY           SKY/WX    TMP DP  RH WIND       PRES   REMARKS
CRAIG          FAIR      41  31  67 W6        29.83R
HAYDEN         FAIR      39  32  75 SE7       29.82S
MEEKER         CLOUDY    39  35  86 S3        29.84R
MOUNT WERNER   NOT AVBL
STEAMBOAT SPGS CLOUDY    35  34  95 E5        29.83S WCI  31
WALDEN         CLOUDY    30  28  93 NW7       29.79R WCI  23
$$

COZ006>008-011-300400-
...WEST CENTRAL VALLEYS...

CITY           SKY/WX    TMP DP  RH WIND       PRES   REMARKS
GRAND JUNCTION CLOUDY    46  40  79 NE7       29.80R
MONTROSE       CLOUDY    46  33  60 E6        29.83R
EAGLE          CLOUDY    39  37  93 CALM      29.85R
RIFLE          CLOUDY    45  38  76 W5        29.82R
DELTA          NOT AVBL
NUCLA          NOT AVBL
$$

COZ017>023-064>068-300400-
...SOUTHWEST COLORADO...

CITY           SKY/WX    TMP DP  RH WIND       PRES   REMARKS
DURANGO        FAIR      42  29  59 W13       29.82R
CORTEZ         LGT RAIN  41  37  86 VRB6      29.86R FOG
PAGOSA SPRINGS FAIR      35  35 100 CALM      29.86R
TELLURIDE      CLOUDY    34  29  81 CALM      29.90R
WOLF CREEK PAS SNOW      21  21 100 SW10      29.93R VSB 1/2 WCI  10
$$

COZ009-010-012-014-032>034-037-058>063-300400-
...CENTRAL COLORADO...

CITY           SKY/WX    TMP DP  RH WIND       PRES   REMARKS
ASPEN          LGT SNOW  34  32  92 CALM      29.82R FOG
BUENA VISTA    LGT SNOW  29  28  95 SE7       29.87R WCI  22
COPPER MTN     NOT AVBL
BERTHOUD PASS  LGT SNOW  14   5  67 CALM      29.86S
COTTONWOOD PAS LGT SNOW  28  27  93 CALM      29.87R
GUNNISON       CLOUDY    37  32  81 CALM      29.84R
KREMMLING      MIX PCPN  34  32  93 CALM      29.84R
LEADVILLE      LGT SNOW  23  22  96 S12       29.84R VSB 1   WCI  12
MONARCH PASS   CLOUDY    19  16  86 E10       29.96R WCI   8
SALIDA         CLOUDY    32  29  88 SE9       29.94S WCI  25
SUNLIGHT       SNOW      30  28  93 NW6       29.91S VSB 1/4 WCI  24
WILKERSON PASS LGT SNOW N/A N/A N/A E6        29.89S
$$

COZ069>075-300400-
...SAN LUIS VALLEY/SANGRE DE CRISTO MOUNTAINS...

CITY           SKY/WX    TMP DP  RH WIND       PRES   REMARKS
ALAMOSA        LGT SNOW  32  32 100 SE8       29.85R FOG     WCI  25
LA VETA PASS   LGT SNOW  21  19  93 MISG      29.87R
SAGUACHE       MIX PCPN  32  32 100 S5        29.85S WCI  27
$$

COZ035-036-038>040-300400-
...NORTHERN COLORADO FRONT RANGE...

CITY           SKY/WX    TMP DP  RH WIND       PRES   REMARKS
DENVER INTL AP LGT SNOW  33  30  88 N6        29.90R VSB 1   WCI  28
DMNS CITY PARK   N/A     33  33  99 MISG      29.91R
AURORA         LGT SNOW  32  32 100 N5        29.90S FOG     WCI  27
FRONT RANGE AP LGT SNOW  32  30  93 NW6       29.90S VSB 1   WCI  26
ERIE MUNI ARPT DRIZZLE   35  34  97 CALM      29.91S
BOULDER MUN AP LGT RAIN  34  34 100 CALM      29.90S
CENTENNIAL     LGT SNOW  32  31  96 N3        29.89S FOG
BROOMFIELD     LGT RAIN  34  34 100 CALM      29.90S
FORT COLLINS   MOCLDY    36  34  93 N6        29.92S
LONGMONT       MIX PCPN  37  35  90 CALM      29.93S
$$

COZ041-046-047-076>085-087-088-300400-
...PIKES PEAK/PALMER DIVIDE AND SOUTHERN FOOTHILLS...

CITY           SKY/WX    TMP DP  RH WIND       PRES   REMARKS
COLO. SPRINGS  LGT SNOW  33  28  81 VRB3      29.89S FOG
A. F. ACADEMY  MIX PCPN  32  30  93 N6        29.87S WCI  26
SCHRIEVER AFB  NOT AVBL
ELLICOTT       NOT AVBL
FALCON         CLOUDY    30  27  90 NW8       29.88S WCI  22
FORT CARSON    LGT SNOW  33  32  97 NW3       29.88R FOG
LIMON          LGT SNOW  30  29  96 N9        29.89R FOG     WCI  22
MONUMENT HILL  LGT SNOW  28  28 100 NW7       29.89R WCI  21
TRINIDAD       LGT SNOW  32  30  92 NW7       29.90R FOG     WCI  26
$$

COZ042>045-048>051-090-091-300400-
...NORTHEAST COLORADO...

CITY           SKY/WX    TMP DP  RH WIND       PRES   REMARKS
GREELEY ARPT   CLOUDY    36  34  93 N7        29.93R
AKRON          LGT SNOW  31  30  96 N10       29.89R VSB 1   WCI  22
BURLINGTON     CLOUDY    33  30  88 N10       29.86R FOG     WCI  25
WRAY           NOT AVBL
STERLING       LGT SNOW  32  32 100 N6        29.90S WCI  26
HOLYOKE        NOT AVBL
FORT MORGAN    LGT SNOW  32  32  99 N7        29.92R WCI  26
$$

COZ086-089-092>099-300400-
...SOUTHEAST COLORADO...

CITY           SKY/WX    TMP DP  RH WIND       PRES   REMARKS
PUEBLO         LGT RAIN  37  33  85 CALM      29.91R
LA JUNTA       LGT RAIN  37  34  89 N10       29.90R
LAMAR          CLOUDY    37  35  92 NW10      29.87R
SPRINGFIELD      N/A     36  35  96 N14       29.86R
$$




USA.gov is the U.S. government's official web portal to all federal, state and local government web resources and services.